Location: Arcueil
(48.7999°N, 2.3326°E)
Time: 23:40:09
(UTC+00:00)

Cosmos 1745 Rocket - Pass Details

Date: 03 February 2023
Orbit: 951 x 999 km, 83.0° (Epoch: 21 March)

Event Time Altitude Azimuth Distance (km) Brightness Sun altitude
Rises 19:13:23 0° 349° (N) 3,700 7.2 -23.6°
Reaches altitude 10° 19:15:55 10° 348° (NNW) 2,741 6.5 -24.0°
Maximum altitude 19:22:11 75° 264° (W) 1,006 4.1 -25.0°
Drops below altitude 10° 19:28:19 10° 181° (S) 2,690 6.3 -26.0°
Sets 19:30:47 0° 179° (S) 3,627 6.9 -26.4°
